Tracking 19795 objects as of 20-Jul-2019
HD Live streaming from Space Station
objects crossing your sky now

FENGYUN 1C DEB

Track FENGYUN 1C DEB now!
10-day predictions


NORAD ID: 30686
Int'l Code: 1999-025AQU
Perigee: 587.3 km
Apogee: 876.2 km
Inclination: 99.0 °
Period: 99.3 minutes
Semi major axis: 7102 km
RCS: 0.0215 m2 (small)
Launch date: May 10, 1999
Source: People's Republic of China (PRC)
Launch site: Taiyaun Space Center, China (TSC)

Note: This is SATELLITE DEBRIS
aabbcc
Your satellite tracking list
Your tracking list is empty




NASA's NSSDC Master Catalog

Two Line Element Set (TLE):
1 30686U 99025AQU 19200.88387057  .00000204  00000-0  52921-4 0  9995
2 30686  99.0337 172.4985 0203340   2.8395  53.6338 14.50320766656280
Source of the keplerian elements: AFSPC